Year,Month,Day,Hour,Minute,Value (Times are PST for temperature in C)
2015,07,19,00,00,20.20
2015,07,19,00,01,20.20
2015,07,19,00,02,20.20
2015,07,19,00,03,20.20
2015,07,19,00,04,20.10
2015,07,19,00,05,20.00
2015,07,19,00,06,19.90
2015,07,19,00,07,19.70
2015,07,19,00,08,19.60
2015,07,19,00,09,19.40
2015,07,19,00,10,19.30
2015,07,19,00,11,19.20
2015,07,19,00,12,19.10
2015,07,19,00,13,19.00
2015,07,19,00,14,18.90
2015,07,19,00,15,18.90
2015,07,19,00,16,18.80
2015,07,19,00,17,18.80
2015,07,19,00,18,18.70
2015,07,19,00,19,18.70
2015,07,19,00,20,18.70
2015,07,19,00,21,18.70
2015,07,19,00,22,18.60
2015,07,19,00,23,18.60
2015,07,19,00,24,18.60
2015,07,19,00,25,18.60
2015,07,19,00,26,18.60
2015,07,19,00,27,18.60
2015,07,19,00,28,18.60
2015,07,19,00,29,18.60
2015,07,19,00,30,18.60
2015,07,19,00,31,18.70
2015,07,19,00,32,18.70
2015,07,19,00,33,18.70
2015,07,19,00,34,18.70
2015,07,19,00,35,18.70
2015,07,19,00,36,18.70
2015,07,19,00,37,18.70
2015,07,19,00,38,18.80
2015,07,19,00,39,18.80
2015,07,19,00,40,18.80
2015,07,19,00,41,18.80
2015,07,19,00,42,18.90
2015,07,19,00,43,18.90
2015,07,19,00,44,19.00
2015,07,19,00,45,19.00
2015,07,19,00,46,19.00
2015,07,19,00,47,19.10
2015,07,19,00,48,19.10
2015,07,19,00,49,19.10
2015,07,19,00,50,19.10
2015,07,19,00,51,19.10
2015,07,19,00,52,19.10
2015,07,19,00,53,19.10
2015,07,19,00,54,19.10
2015,07,19,00,55,19.10
2015,07,19,00,56,19.10
2015,07,19,00,57,19.10
2015,07,19,00,58,19.10
2015,07,19,00,59,19.10
2015,07,19,01,00,19.00
2015,07,19,01,01,19.00
2015,07,19,01,02,18.90
2015,07,19,01,03,18.90
2015,07,19,01,04,18.90
2015,07,19,01,05,18.80
2015,07,19,01,06,18.80
2015,07,19,01,07,18.70
2015,07,19,01,08,18.70
2015,07,19,01,09,18.70
2015,07,19,01,10,18.60
2015,07,19,01,11,18.50
2015,07,19,01,12,18.50
2015,07,19,01,13,18.40
2015,07,19,01,14,18.40
2015,07,19,01,15,18.40
2015,07,19,01,16,18.40
2015,07,19,01,17,18.40
2015,07,19,01,18,18.40
2015,07,19,01,19,18.40
2015,07,19,01,20,18.40
2015,07,19,01,21,18.40
2015,07,19,01,22,18.40
2015,07,19,01,23,18.40
2015,07,19,01,24,18.40
2015,07,19,01,25,18.40
2015,07,19,01,26,18.50
2015,07,19,01,27,18.50
2015,07,19,01,28,18.50
2015,07,19,01,29,18.50
2015,07,19,01,30,18.50
2015,07,19,01,31,18.50
2015,07,19,01,32,18.50
2015,07,19,01,33,18.50
2015,07,19,01,34,18.50
2015,07,19,01,35,18.50
2015,07,19,01,36,18.50
2015,07,19,01,37,18.50
2015,07,19,01,38,18.50
2015,07,19,01,39,18.50
2015,07,19,01,40,18.50
2015,07,19,01,41,18.40
2015,07,19,01,42,18.40
2015,07,19,01,43,18.40
2015,07,19,01,44,18.40
2015,07,19,01,45,18.40
2015,07,19,01,46,18.40
2015,07,19,01,47,18.40
2015,07,19,01,48,18.40
2015,07,19,01,49,18.40
2015,07,19,01,50,18.40
2015,07,19,01,51,18.40
2015,07,19,01,52,18.30
2015,07,19,01,53,18.30
2015,07,19,01,54,18.30
2015,07,19,01,55,18.30
2015,07,19,01,56,18.30
2015,07,19,01,57,18.30
2015,07,19,01,58,18.30
2015,07,19,01,59,18.30
2015,07,19,02,00,18.30
2015,07,19,02,01,18.30
2015,07,19,02,02,18.30
2015,07,19,02,03,18.30
2015,07,19,02,04,18.30
2015,07,19,02,05,18.30
2015,07,19,02,06,18.30
2015,07,19,02,07,18.30
2015,07,19,02,08,18.30
2015,07,19,02,09,18.30
2015,07,19,02,10,18.30
2015,07,19,02,11,18.30
2015,07,19,02,12,18.30
2015,07,19,02,13,18.30
2015,07,19,02,14,18.30
2015,07,19,02,15,18.20
2015,07,19,02,16,18.10
2015,07,19,02,17,18.00
2015,07,19,02,18,17.90
2015,07,19,02,19,17.80
2015,07,19,02,20,17.70
2015,07,19,02,21,17.60
2015,07,19,02,22,17.50
2015,07,19,02,23,17.40
2015,07,19,02,24,17.30
2015,07,19,02,25,17.30
2015,07,19,02,26,17.20
2015,07,19,02,27,17.20
2015,07,19,02,28,17.10
2015,07,19,02,29,17.10
2015,07,19,02,30,17.10
2015,07,19,02,31,17.10
2015,07,19,02,32,17.10
2015,07,19,02,33,17.10
2015,07,19,02,34,17.10
2015,07,19,02,35,17.10
2015,07,19,02,36,17.10
2015,07,19,02,37,17.10
2015,07,19,02,38,17.10
2015,07,19,02,39,17.10
2015,07,19,02,40,17.10
2015,07,19,02,41,17.10
2015,07,19,02,42,17.10
2015,07,19,02,43,17.10
2015,07,19,02,44,17.10
2015,07,19,02,45,17.10
2015,07,19,02,46,17.10
2015,07,19,02,47,17.10
2015,07,19,02,48,17.10
2015,07,19,02,49,17.10
2015,07,19,02,50,17.10
2015,07,19,02,51,17.10
2015,07,19,02,52,17.00
2015,07,19,02,53,17.00
2015,07,19,02,54,17.00
2015,07,19,02,55,17.00
2015,07,19,02,56,17.10
2015,07,19,02,57,17.10
2015,07,19,02,58,17.10
2015,07,19,02,59,17.20
2015,07,19,03,00,17.20
2015,07,19,03,01,17.20
2015,07,19,03,02,17.20
2015,07,19,03,03,17.20
2015,07,19,03,04,17.20
2015,07,19,03,05,17.10
2015,07,19,03,06,17.10
2015,07,19,03,07,17.00
2015,07,19,03,08,16.90
2015,07,19,03,09,16.80
2015,07,19,03,10,16.70
2015,07,19,03,11,16.60
2015,07,19,03,12,16.50
2015,07,19,03,13,16.40
2015,07,19,03,14,16.40
2015,07,19,03,15,16.30
2015,07,19,03,16,16.30
2015,07,19,03,17,16.30
2015,07,19,03,18,16.30
2015,07,19,03,19,16.20
2015,07,19,03,20,16.20
2015,07,19,03,21,16.20
2015,07,19,03,22,16.20
2015,07,19,03,23,16.20
2015,07,19,03,24,16.20
2015,07,19,03,25,16.20
2015,07,19,03,26,16.30
2015,07,19,03,27,16.30
2015,07,19,03,28,16.30
2015,07,19,03,29,16.30
2015,07,19,03,30,16.30
2015,07,19,03,31,16.30
2015,07,19,03,32,16.40
2015,07,19,03,33,16.40
2015,07,19,03,34,16.40
2015,07,19,03,35,16.40
2015,07,19,03,36,16.40
2015,07,19,03,37,16.40
2015,07,19,03,38,16.40
2015,07,19,03,39,16.40
2015,07,19,03,40,16.40
2015,07,19,03,41,16.40
2015,07,19,03,42,16.40
2015,07,19,03,43,16.50
2015,07,19,03,44,16.50
2015,07,19,03,45,16.50
2015,07,19,03,46,16.60
2015,07,19,03,47,16.60
2015,07,19,03,48,16.60
2015,07,19,03,49,16.60
2015,07,19,03,50,16.70
2015,07,19,03,51,16.70
2015,07,19,03,52,16.70
2015,07,19,03,53,16.80
2015,07,19,03,54,16.80
2015,07,19,03,55,16.80
2015,07,19,03,56,16.80
2015,07,19,03,57,16.70
2015,07,19,03,58,16.70
2015,07,19,03,59,16.60
2015,07,19,04,00,16.60
2015,07,19,04,01,16.50
2015,07,19,04,02,16.40
2015,07,19,04,03,16.30
2015,07,19,04,04,16.20
2015,07,19,04,05,16.20
2015,07,19,04,06,16.20
2015,07,19,04,07,16.10
2015,07,19,04,08,16.10
2015,07,19,04,09,16.10
2015,07,19,04,10,16.10
2015,07,19,04,11,16.10
2015,07,19,04,12,16.00
2015,07,19,04,13,15.90
2015,07,19,04,14,15.90
2015,07,19,04,15,15.90
2015,07,19,04,16,15.90
2015,07,19,04,17,15.80
2015,07,19,04,18,15.80
2015,07,19,04,19,15.80
2015,07,19,04,20,15.80
2015,07,19,04,21,15.70
2015,07,19,04,22,15.70
2015,07,19,04,23,15.70
2015,07,19,04,24,15.80
2015,07,19,04,25,15.80
2015,07,19,04,26,15.80
2015,07,19,04,27,15.90
2015,07,19,04,28,15.90
2015,07,19,04,29,15.90
2015,07,19,04,30,15.90
2015,07,19,04,31,15.90
2015,07,19,04,32,15.90
2015,07,19,04,33,15.90
2015,07,19,04,34,15.90
2015,07,19,04,35,15.90
2015,07,19,04,36,15.90
2015,07,19,04,37,15.80
2015,07,19,04,38,15.80
2015,07,19,04,39,15.80
2015,07,19,04,40,15.70
2015,07,19,04,41,15.70
2015,07,19,04,42,15.60
2015,07,19,04,43,15.60
2015,07,19,04,44,15.50
2015,07,19,04,45,15.50
2015,07,19,04,46,15.50
2015,07,19,04,47,15.50
2015,07,19,04,48,15.40
2015,07,19,04,49,15.40
2015,07,19,04,50,15.40
2015,07,19,04,51,15.40
2015,07,19,04,52,15.40
2015,07,19,04,53,15.40
2015,07,19,04,54,15.50
2015,07,19,04,55,15.50
2015,07,19,04,56,15.50
2015,07,19,04,57,15.60
2015,07,19,04,58,15.60
2015,07,19,04,59,15.60
2015,07,19,05,00,15.60
2015,07,19,05,01,15.70
2015,07,19,05,02,15.70
2015,07,19,05,03,15.70
2015,07,19,05,04,15.70
2015,07,19,05,05,15.60
2015,07,19,05,06,15.60
2015,07,19,05,07,15.60
2015,07,19,05,08,15.60
2015,07,19,05,09,15.60
2015,07,19,05,10,15.60
2015,07,19,05,11,15.50
2015,07,19,05,12,15.50
2015,07,19,05,13,15.50
2015,07,19,05,14,15.50
2015,07,19,05,15,15.50
2015,07,19,05,16,15.50
2015,07,19,05,17,15.50
2015,07,19,05,18,15.50
2015,07,19,05,19,15.50
2015,07,19,05,20,15.50
2015,07,19,05,21,15.50
2015,07,19,05,22,15.50
2015,07,19,05,23,15.50
2015,07,19,05,24,15.50
2015,07,19,05,25,15.50
2015,07,19,05,26,15.50
2015,07,19,05,27,15.50
2015,07,19,05,28,15.60
2015,07,19,05,29,15.60
2015,07,19,05,30,15.50
2015,07,19,05,31,15.60
2015,07,19,05,32,15.50
2015,07,19,05,33,15.50
2015,07,19,05,34,15.50
2015,07,19,05,35,15.50
2015,07,19,05,36,15.50
2015,07,19,05,37,15.50
2015,07,19,05,38,15.50
2015,07,19,05,39,15.50
2015,07,19,05,40,15.50
2015,07,19,05,41,15.50
2015,07,19,05,42,15.50
2015,07,19,05,43,15.50
2015,07,19,05,44,15.50
2015,07,19,05,45,15.40
2015,07,19,05,46,15.40
2015,07,19,05,47,15.40
2015,07,19,05,48,15.40
2015,07,19,05,49,15.40
2015,07,19,05,50,15.40
2015,07,19,05,51,15.40
2015,07,19,05,52,15.40
2015,07,19,05,53,15.40
2015,07,19,05,54,15.30
2015,07,19,05,55,15.30
2015,07,19,05,56,15.30
2015,07,19,05,57,15.30
2015,07,19,05,58,15.30
2015,07,19,05,59,15.20
2015,07,19,06,00,15.20
2015,07,19,06,01,15.20
2015,07,19,06,02,15.20
2015,07,19,06,03,15.20
2015,07,19,06,04,15.20
2015,07,19,06,05,15.20
2015,07,19,06,06,15.30
2015,07,19,06,07,15.30
2015,07,19,06,08,15.30
2015,07,19,06,09,15.30
2015,07,19,06,10,15.30
2015,07,19,06,11,15.30
2015,07,19,06,12,15.40
2015,07,19,06,13,15.40
2015,07,19,06,14,15.40
2015,07,19,06,15,15.40
2015,07,19,06,16,15.40
2015,07,19,06,17,15.40
2015,07,19,06,18,15.40
2015,07,19,06,19,15.40
2015,07,19,06,20,15.40
2015,07,19,06,21,15.40
2015,07,19,06,22,15.40
2015,07,19,06,23,15.50
2015,07,19,06,24,15.50
2015,07,19,06,25,15.50
2015,07,19,06,26,15.50
2015,07,19,06,27,15.60
2015,07,19,06,28,15.60
2015,07,19,06,29,15.60
2015,07,19,06,30,15.70
2015,07,19,06,31,15.80
2015,07,19,06,32,15.80
2015,07,19,06,33,15.80
2015,07,19,06,34,15.90
2015,07,19,06,35,15.90
2015,07,19,06,36,15.90
2015,07,19,06,37,16.00
2015,07,19,06,38,16.00
2015,07,19,06,39,16.00
2015,07,19,06,40,16.10
2015,07,19,06,41,16.20
2015,07,19,06,42,16.20
2015,07,19,06,43,16.30
2015,07,19,06,44,16.30
2015,07,19,06,45,16.30
2015,07,19,06,46,16.40
2015,07,19,06,47,16.40
2015,07,19,06,48,16.50
2015,07,19,06,49,16.50
2015,07,19,06,50,16.60
2015,07,19,06,51,16.60
2015,07,19,06,52,16.70
2015,07,19,06,53,16.70
2015,07,19,06,54,16.80
2015,07,19,06,55,16.90
2015,07,19,06,56,17.00
2015,07,19,06,57,17.10
2015,07,19,06,58,17.10
2015,07,19,06,59,17.20
2015,07,19,07,00,17.30
2015,07,19,07,01,17.50
2015,07,19,07,02,17.80
2015,07,19,07,03,18.00
2015,07,19,07,04,18.30
2015,07,19,07,05,18.50
2015,07,19,07,06,18.70
2015,07,19,07,07,18.90
2015,07,19,07,08,19.00
2015,07,19,07,09,19.20
2015,07,19,07,10,19.30
2015,07,19,07,11,19.40
2015,07,19,07,12,19.40
2015,07,19,07,13,19.50
2015,07,19,07,14,19.50
2015,07,19,07,15,19.50
2015,07,19,07,16,19.50
2015,07,19,07,17,19.40
2015,07,19,07,18,19.40
2015,07,19,07,19,19.30
2015,07,19,07,20,19.30
2015,07,19,07,21,19.30
2015,07,19,07,22,19.30
2015,07,19,07,23,19.30
2015,07,19,07,24,19.20
2015,07,19,07,25,19.30
2015,07,19,07,26,19.30
2015,07,19,07,27,19.30
2015,07,19,07,28,19.30
2015,07,19,07,29,19.30
2015,07,19,07,30,19.40
2015,07,19,07,31,19.40
2015,07,19,07,32,19.40
2015,07,19,07,33,19.50
2015,07,19,07,34,19.50
2015,07,19,07,35,19.60
2015,07,19,07,36,19.60
2015,07,19,07,37,19.70
2015,07,19,07,38,19.80
2015,07,19,07,39,19.80
2015,07,19,07,40,19.90
2015,07,19,07,41,20.10
2015,07,19,07,42,20.30
2015,07,19,07,43,20.40
2015,07,19,07,44,20.60
2015,07,19,07,45,20.70
2015,07,19,07,46,20.80
2015,07,19,07,47,20.90
2015,07,19,07,48,20.90
2015,07,19,07,49,21.00
2015,07,19,07,50,21.00
2015,07,19,07,51,21.10
2015,07,19,07,52,21.20
2015,07,19,07,53,21.30
2015,07,19,07,54,21.30
2015,07,19,07,55,21.40
2015,07,19,07,56,21.50
2015,07,19,07,57,21.60
2015,07,19,07,58,21.70
2015,07,19,07,59,21.80
2015,07,19,08,00,21.90
2015,07,19,08,01,22.00
2015,07,19,08,02,22.10
2015,07,19,08,03,22.20
2015,07,19,08,04,22.30
2015,07,19,08,05,22.40
2015,07,19,08,06,22.50
2015,07,19,08,07,22.60
2015,07,19,08,08,22.70
2015,07,19,08,09,22.70
2015,07,19,08,10,22.70
2015,07,19,08,11,22.70
2015,07,19,08,12,22.70
2015,07,19,08,13,22.70
2015,07,19,08,14,22.60
2015,07,19,08,15,22.60
2015,07,19,08,16,22.50
2015,07,19,08,17,22.50
2015,07,19,08,18,22.50
2015,07,19,08,19,22.50
2015,07,19,08,20,22.60
2015,07,19,08,21,22.70
2015,07,19,08,22,22.80
2015,07,19,08,23,22.90
2015,07,19,08,24,22.90
2015,07,19,08,25,23.00
2015,07,19,08,26,23.00
2015,07,19,08,27,23.10
2015,07,19,08,28,23.10
2015,07,19,08,29,23.20
2015,07,19,08,30,23.30
2015,07,19,08,31,23.30
2015,07,19,08,32,23.30
2015,07,19,08,33,23.30
2015,07,19,08,34,23.30
2015,07,19,08,35,23.40
2015,07,19,08,36,23.40
2015,07,19,08,37,23.40
2015,07,19,08,38,23.40
2015,07,19,08,39,23.40
2015,07,19,08,40,23.40
2015,07,19,08,41,23.40
2015,07,19,08,42,23.40
2015,07,19,08,43,23.40
2015,07,19,08,44,23.30
2015,07,19,08,45,23.30
2015,07,19,08,46,23.30
2015,07,19,08,47,23.20
2015,07,19,08,48,23.30
2015,07,19,08,49,23.30
2015,07,19,08,50,23.30
2015,07,19,08,51,23.30
2015,07,19,08,52,23.40
2015,07,19,08,53,23.40
2015,07,19,08,54,23.40
2015,07,19,08,55,23.50
2015,07,19,08,56,23.50
2015,07,19,08,57,23.60
2015,07,19,08,58,23.60
2015,07,19,08,59,23.70
2015,07,19,09,00,23.70
2015,07,19,09,01,23.80
2015,07,19,09,02,23.90
2015,07,19,09,03,23.90
2015,07,19,09,04,23.90
2015,07,19,09,05,23.90
2015,07,19,09,06,24.00
2015,07,19,09,07,24.00
2015,07,19,09,08,24.00
2015,07,19,09,09,24.10
2015,07,19,09,10,24.10
2015,07,19,09,11,24.10
2015,07,19,09,12,24.00
2015,07,19,09,13,24.00
2015,07,19,09,14,24.10
2015,07,19,09,15,24.10
2015,07,19,09,16,24.10
2015,07,19,09,17,24.10
2015,07,19,09,18,24.20
2015,07,19,09,19,24.10
2015,07,19,09,20,24.10
2015,07,19,09,21,23.90
2015,07,19,09,22,23.70
2015,07,19,09,23,23.60
2015,07,19,09,24,23.50
2015,07,19,09,25,23.40
2015,07,19,09,26,23.40
2015,07,19,09,27,23.40
2015,07,19,09,28,23.50
2015,07,19,09,29,23.50
2015,07,19,09,30,23.60
2015,07,19,09,31,23.60
2015,07,19,09,32,23.60
2015,07,19,09,33,23.60
2015,07,19,09,34,23.60
2015,07,19,09,35,23.60
2015,07,19,09,36,23.60
2015,07,19,09,37,23.70
2015,07,19,09,38,23.70
2015,07,19,09,39,23.80
2015,07,19,09,40,23.90
2015,07,19,09,41,24.10
2015,07,19,09,42,24.20
2015,07,19,09,43,24.00
2015,07,19,09,44,23.90
2015,07,19,09,45,23.70
2015,07,19,09,46,23.60
2015,07,19,09,47,23.50
2015,07,19,09,48,23.40
2015,07,19,09,49,23.40
2015,07,19,09,50,23.40
2015,07,19,09,51,23.40
2015,07,19,09,52,23.50
2015,07,19,09,53,23.50
2015,07,19,09,54,23.60
2015,07,19,09,55,23.60
2015,07,19,09,56,23.70
2015,07,19,09,57,23.80
2015,07,19,09,58,23.80
2015,07,19,09,59,23.90
2015,07,19,10,00,23.90
2015,07,19,10,01,23.90
2015,07,19,10,02,24.00
2015,07,19,10,03,24.00
2015,07,19,10,04,24.10
2015,07,19,10,05,24.10
2015,07,19,10,06,24.10
2015,07,19,10,07,24.10
2015,07,19,10,08,24.00
2015,07,19,10,09,23.90
2015,07,19,10,10,23.70
2015,07,19,10,11,23.60
2015,07,19,10,12,23.50
2015,07,19,10,13,23.50
2015,07,19,10,14,23.50
2015,07,19,10,15,23.50
2015,07,19,10,16,23.50
2015,07,19,10,17,23.50
2015,07,19,10,18,23.40
2015,07,19,10,19,23.40
2015,07,19,10,20,23.50
2015,07,19,10,21,23.50
2015,07,19,10,22,23.50
2015,07,19,10,23,23.60
2015,07,19,10,24,23.60
2015,07,19,10,25,23.60
2015,07,19,10,26,23.50
2015,07,19,10,27,23.50
2015,07,19,10,28,23.50
2015,07,19,10,29,23.50
2015,07,19,10,30,23.60
2015,07,19,10,31,23.60
2015,07,19,10,32,23.60
2015,07,19,10,33,23.60
2015,07,19,10,34,23.60
2015,07,19,10,35,23.70
2015,07,19,10,36,23.80
2015,07,19,10,37,23.80
2015,07,19,10,38,23.80
2015,07,19,10,39,23.90
2015,07,19,10,40,24.00
2015,07,19,10,41,24.10
2015,07,19,10,42,24.10
2015,07,19,10,43,24.20
2015,07,19,10,44,24.20
2015,07,19,10,45,24.10
2015,07,19,10,46,24.00
2015,07,19,10,47,23.90
2015,07,19,10,48,23.80
2015,07,19,10,49,23.80
2015,07,19,10,50,23.80
2015,07,19,10,51,23.80
2015,07,19,10,52,23.80
2015,07,19,10,53,23.90
2015,07,19,10,54,24.00
2015,07,19,10,55,24.10
2015,07,19,10,56,24.20
2015,07,19,10,57,24.30
2015,07,19,10,58,24.40
2015,07,19,10,59,24.50
2015,07,19,11,00,24.60
2015,07,19,11,01,24.70
2015,07,19,11,02,24.80
2015,07,19,11,03,24.80
2015,07,19,11,04,24.80
2015,07,19,11,05,24.80
2015,07,19,11,06,24.80
2015,07,19,11,07,24.70
2015,07,19,11,08,24.80
2015,07,19,11,09,24.80
2015,07,19,11,10,24.80
2015,07,19,11,11,24.90
2015,07,19,11,12,25.00
2015,07,19,11,13,25.10
2015,07,19,11,14,25.10
2015,07,19,11,15,25.10
2015,07,19,11,16,25.10
2015,07,19,11,17,25.00
2015,07,19,11,18,25.00
2015,07,19,11,19,24.90
2015,07,19,11,20,24.90
2015,07,19,11,21,24.90
2015,07,19,11,22,24.90
2015,07,19,11,23,24.90
2015,07,19,11,24,24.80
2015,07,19,11,25,24.80
2015,07,19,11,26,24.80
2015,07,19,11,27,24.70
2015,07,19,11,28,24.70
2015,07,19,11,29,24.70
2015,07,19,11,30,24.70
2015,07,19,11,31,24.70
2015,07,19,11,32,24.80
2015,07,19,11,33,24.90
2015,07,19,11,34,25.00
2015,07,19,11,35,25.20
2015,07,19,11,36,25.20
2015,07,19,11,37,25.20
2015,07,19,11,38,25.20
2015,07,19,11,39,25.20
2015,07,19,11,40,25.20
2015,07,19,11,41,25.20
2015,07,19,11,42,25.30
2015,07,19,11,43,25.40
2015,07,19,11,44,25.40
2015,07,19,11,45,25.40
2015,07,19,11,46,25.30
2015,07,19,11,47,25.40
2015,07,19,11,48,25.40
2015,07,19,11,49,25.40
2015,07,19,11,50,25.40
2015,07,19,11,51,25.40
2015,07,19,11,52,25.30
2015,07,19,11,53,25.10
2015,07,19,11,54,25.00
2015,07,19,11,55,24.90
2015,07,19,11,56,24.90
2015,07,19,11,57,24.90
2015,07,19,11,58,25.00
2015,07,19,11,59,25.10
2015,07,19,12,00,25.20
2015,07,19,12,01,25.30
2015,07,19,12,02,25.40
2015,07,19,12,03,25.50
2015,07,19,12,04,25.50
2015,07,19,12,05,25.50
2015,07,19,12,06,25.50
2015,07,19,12,07,25.40
2015,07,19,12,08,25.30
2015,07,19,12,09,25.10
2015,07,19,12,10,24.90
2015,07,19,12,11,24.80
2015,07,19,12,12,24.80
2015,07,19,12,13,24.90
2015,07,19,12,14,24.90
2015,07,19,12,15,25.00
2015,07,19,12,16,25.20
2015,07,19,12,17,25.30
2015,07,19,12,18,25.50
2015,07,19,12,19,25.60
2015,07,19,12,20,25.80
2015,07,19,12,21,25.90
2015,07,19,12,22,25.90
2015,07,19,12,23,25.90
2015,07,19,12,24,25.90
2015,07,19,12,25,25.90
2015,07,19,12,26,25.90
2015,07,19,12,27,25.90
2015,07,19,12,28,25.90
2015,07,19,12,29,26.00
2015,07,19,12,30,26.00
2015,07,19,12,31,25.90
2015,07,19,12,32,25.90
2015,07,19,12,33,25.90
2015,07,19,12,34,26.00
2015,07,19,12,35,26.00
2015,07,19,12,36,26.10
2015,07,19,12,37,26.00
2015,07,19,12,38,25.80
2015,07,19,12,39,25.70
2015,07,19,12,40,25.60
2015,07,19,12,41,25.50
2015,07,19,12,42,25.50
2015,07,19,12,43,25.60
2015,07,19,12,44,25.60
2015,07,19,12,45,25.60
2015,07,19,12,46,25.70
2015,07,19,12,47,25.60
2015,07,19,12,48,25.60
2015,07,19,12,49,25.60
2015,07,19,12,50,25.50
2015,07,19,12,51,25.60
2015,07,19,12,52,25.60
2015,07,19,12,53,25.80
2015,07,19,12,54,25.90
2015,07,19,12,55,26.20
2015,07,19,12,56,26.30
2015,07,19,12,57,26.40
2015,07,19,12,58,26.50
2015,07,19,12,59,26.50
2015,07,19,13,00,26.50
2015,07,19,13,01,26.40
2015,07,19,13,02,26.40
2015,07,19,13,03,26.40
2015,07,19,13,04,26.40
2015,07,19,13,05,26.40
2015,07,19,13,06,26.20
2015,07,19,13,07,26.00
2015,07,19,13,08,25.80
2015,07,19,13,09,25.80
2015,07,19,13,10,25.80
2015,07,19,13,11,25.80
2015,07,19,13,12,25.90
2015,07,19,13,13,26.00
2015,07,19,13,14,26.10
2015,07,19,13,15,26.10
2015,07,19,13,16,26.10
2015,07,19,13,17,26.10
2015,07,19,13,18,26.10
2015,07,19,13,19,26.10
2015,07,19,13,20,26.00
2015,07,19,13,21,25.80
2015,07,19,13,22,25.70
2015,07,19,13,23,25.60
2015,07,19,13,24,25.60
2015,07,19,13,25,25.60
2015,07,19,13,26,25.60
2015,07,19,13,27,25.50
2015,07,19,13,28,25.40
2015,07,19,13,29,25.40
2015,07,19,13,30,25.50
2015,07,19,13,31,25.50
2015,07,19,13,32,25.70
2015,07,19,13,33,25.80
2015,07,19,13,34,25.90
2015,07,19,13,35,25.90
2015,07,19,13,36,25.90
2015,07,19,13,37,25.90
2015,07,19,13,38,26.00
2015,07,19,13,39,26.10
2015,07,19,13,40,26.20
2015,07,19,13,41,26.20
2015,07,19,13,42,26.20
2015,07,19,13,43,26.30
2015,07,19,13,44,26.40
2015,07,19,13,45,26.50
2015,07,19,13,46,26.60
2015,07,19,13,47,26.60
2015,07,19,13,48,26.70
2015,07,19,13,49,26.70
2015,07,19,13,50,26.70
2015,07,19,13,51,26.70
2015,07,19,13,52,26.70
2015,07,19,13,53,26.60
2015,07,19,13,54,26.60
2015,07,19,13,55,26.50
2015,07,19,13,56,26.40
2015,07,19,13,57,26.30
2015,07,19,13,58,26.30
2015,07,19,13,59,26.30
2015,07,19,14,00,26.40
2015,07,19,14,01,26.40
2015,07,19,14,02,26.30
2015,07,19,14,03,26.30
2015,07,19,14,04,26.30
2015,07,19,14,05,26.30
2015,07,19,14,06,26.40
2015,07,19,14,07,26.40
2015,07,19,14,08,26.40
2015,07,19,14,09,26.40
2015,07,19,14,10,26.40
2015,07,19,14,11,26.40
2015,07,19,14,12,26.50
2015,07,19,14,13,26.60
2015,07,19,14,14,26.70
2015,07,19,14,15,26.80
2015,07,19,14,16,26.70
2015,07,19,14,17,26.70
2015,07,19,14,18,26.70
2015,07,19,14,19,26.70
2015,07,19,14,20,26.70
2015,07,19,14,21,26.70
2015,07,19,14,22,26.60
2015,07,19,14,23,26.70
2015,07,19,14,24,26.80
2015,07,19,14,25,26.90
2015,07,19,14,26,26.90
2015,07,19,14,27,26.90
2015,07,19,14,28,26.90
2015,07,19,14,29,26.80
2015,07,19,14,30,26.90
2015,07,19,14,31,26.90
2015,07,19,14,32,27.00
2015,07,19,14,33,27.10
2015,07,19,14,34,27.10
2015,07,19,14,35,27.10
2015,07,19,14,36,27.10
2015,07,19,14,37,27.00
2015,07,19,14,38,26.90
2015,07,19,14,39,27.00
2015,07,19,14,40,27.20
2015,07,19,14,41,27.30
2015,07,19,14,42,27.40
2015,07,19,14,43,27.40
2015,07,19,14,44,27.40
2015,07,19,14,45,27.40
2015,07,19,14,46,27.40
2015,07,19,14,47,27.40
2015,07,19,14,48,27.50
2015,07,19,14,49,27.60
2015,07,19,14,50,27.60
2015,07,19,14,51,27.70
2015,07,19,14,52,27.80
2015,07,19,14,53,27.80
2015,07,19,14,54,27.90
2015,07,19,14,55,27.90
2015,07,19,14,56,27.90
2015,07,19,14,57,27.80
2015,07,19,14,58,27.70
2015,07,19,14,59,27.80
2015,07,19,15,00,27.70
2015,07,19,15,01,27.80
2015,07,19,15,02,27.80
2015,07,19,15,03,27.80
2015,07,19,15,04,27.80
2015,07,19,15,05,27.80
2015,07,19,15,06,27.70
2015,07,19,15,07,27.60
2015,07,19,15,08,27.50
2015,07,19,15,09,27.50
2015,07,19,15,10,27.40
2015,07,19,15,11,27.30
2015,07,19,15,12,27.40
2015,07,19,15,13,27.40
2015,07,19,15,14,27.50
2015,07,19,15,15,27.60
2015,07,19,15,16,27.80
2015,07,19,15,17,27.80
2015,07,19,15,18,27.80
2015,07,19,15,19,27.90
2015,07,19,15,20,28.00
2015,07,19,15,21,27.90
2015,07,19,15,22,27.90
2015,07,19,15,23,27.70
2015,07,19,15,24,27.60
2015,07,19,15,25,27.60
2015,07,19,15,26,27.60
2015,07,19,15,27,27.60
2015,07,19,15,28,27.60
2015,07,19,15,29,27.70
2015,07,19,15,30,27.80
2015,07,19,15,31,27.80
2015,07,19,15,32,27.80
2015,07,19,15,33,27.60
2015,07,19,15,34,27.60
2015,07,19,15,35,27.60
2015,07,19,15,36,27.40
2015,07,19,15,37,27.30
2015,07,19,15,38,27.40
2015,07,19,15,39,27.50
2015,07,19,15,40,27.60
2015,07,19,15,41,27.80
2015,07,19,15,42,27.80
2015,07,19,15,43,27.90
2015,07,19,15,44,28.00
2015,07,19,15,45,28.20
2015,07,19,15,46,28.30
2015,07,19,15,47,28.40
2015,07,19,15,48,28.50
2015,07,19,15,49,28.60
2015,07,19,15,50,28.50
2015,07,19,15,51,28.30
2015,07,19,15,52,28.10
2015,07,19,15,53,28.00
2015,07,19,15,54,27.80
2015,07,19,15,55,27.60
2015,07,19,15,56,27.40
2015,07,19,15,57,27.40
2015,07,19,15,58,27.30
2015,07,19,15,59,27.40
2015,07,19,16,00,27.40
2015,07,19,16,01,27.50
2015,07,19,16,02,27.70
2015,07,19,16,03,27.90
2015,07,19,16,04,28.20
2015,07,19,16,05,28.40
2015,07,19,16,06,28.60
2015,07,19,16,07,28.70
2015,07,19,16,08,28.80
2015,07,19,16,09,28.80
2015,07,19,16,10,28.80
2015,07,19,16,11,28.80
2015,07,19,16,12,28.80
2015,07,19,16,13,28.80
2015,07,19,16,14,28.90
2015,07,19,16,15,29.00
2015,07,19,16,16,29.10
2015,07,19,16,17,29.40
2015,07,19,16,18,29.80
2015,07,19,16,19,30.20
2015,07,19,16,20,30.50
2015,07,19,16,21,30.90
2015,07,19,16,22,31.20
2015,07,19,16,23,31.40
2015,07,19,16,24,31.30
2015,07,19,16,25,31.30
2015,07,19,16,26,31.20
2015,07,19,16,27,31.20
2015,07,19,16,28,31.20
2015,07,19,16,29,31.20
2015,07,19,16,30,31.10
2015,07,19,16,31,31.10
2015,07,19,16,32,31.10
2015,07,19,16,33,31.30
2015,07,19,16,34,31.40
2015,07,19,16,35,31.50
2015,07,19,16,36,31.50
2015,07,19,16,37,31.40
2015,07,19,16,38,31.40
2015,07,19,16,39,31.40
2015,07,19,16,40,31.40
2015,07,19,16,41,31.40
2015,07,19,16,42,31.30
2015,07,19,16,43,31.30
2015,07,19,16,44,31.30
2015,07,19,16,45,31.30
2015,07,19,16,46,31.30
2015,07,19,16,47,31.30
2015,07,19,16,48,31.30
2015,07,19,16,49,31.20
2015,07,19,16,50,31.20
2015,07,19,16,51,31.30
2015,07,19,16,52,31.20
2015,07,19,16,53,31.20
2015,07,19,16,54,31.10
2015,07,19,16,55,31.10
2015,07,19,16,56,31.00
2015,07,19,16,57,30.90
2015,07,19,16,58,30.90
2015,07,19,16,59,31.00
2015,07,19,17,00,31.00
2015,07,19,17,01,31.10
2015,07,19,17,02,31.00
2015,07,19,17,03,31.00
2015,07,19,17,04,30.90
2015,07,19,17,05,30.90
2015,07,19,17,06,30.80
2015,07,19,17,07,30.80
2015,07,19,17,08,30.80
2015,07,19,17,09,30.80
2015,07,19,17,10,30.70
2015,07,19,17,11,30.70
2015,07,19,17,12,30.60
2015,07,19,17,13,30.50
2015,07,19,17,14,30.40
2015,07,19,17,15,30.30
2015,07,19,17,16,30.30
2015,07,19,17,17,30.20
2015,07,19,17,18,30.10
2015,07,19,17,19,29.90